(230017) = 2000 GE164

Discovered at Haleakala on 2000-04-13 by NEAT.

Orbit

Orbit type: Main Belt

Note: WebGL enabled browser required.

epoch2023-09-13.0
epoch JD2460200.5
perihelion date2022-11-29.96675
perihelion JD2459913.46675
argument of perihelion (°)149.46100
ascending node (°)86.88658
inclination (°)18.53677
eccentricity0.1776583
perihelion distance (AU)2.5957682
Tisserand w.r.t. Jupiter3.1
ΔV w.r.t. Earth (km/sec)11.6
semimajor axis (AU)3.1565567
mean anomaly (°)50.44471
mean daily motion (°/day)0.17574520
aphelion distance (AU)3.717
period (years)5.61
P-vector [x]-0.52783069
P-vector [y]-0.82929582
P-vector [z]-0.18347536
Q-vector [x]0.78779697
Q-vector [y]-0.39728244
Q-vector [z]-0.47068312
absolute magnitude14.88
phase slope0.15
uncertainty0
referenceMPEC 2024-A48
observations used557
oppositions16
arc length (days)8509
first opposition used2000
last opposition used2023
residual rms (arc-secs)0.70
perturbers coarse indicatorM-v
perturbers precise indicator003Ek
first observation date used2000-04-04.0
last observation date used2023-07-21.0
computer nameMPCLINUX
JD of orbit computation2456612.539439
perihelion JD uncertainty (days)2.0194E-04
argument of perihelion uncertainty (°)5.7187E-05
ascending node uncertainty (°)4.5923E-05
inclination uncertainty (°)1.1746E-05
eccentricity uncertainty 1.5107E-07
perihelion distance uncertainty (AU)4.7778E-07
Minimum Orbit Intersection Distances (in AU)
for orbit epoch: 2460200.5, reference: E2024-A48
Mercury2.14211
Venus1.8798
Earth1.5977
Mars1.11146
Jupiter1.40381
Saturn5.39115
Uranus15.3587
Neptune26.2055

Observations

569 total observations over interval: 2000 04 04.39712 – 2023 07 21.970835
These data are available for download (format description).

Date (UT) J2000 RA J2000 Dec Magn Location Ref
2000 04 04.39712 15 22 09.67 +04 48 19.9 18.7 R 699 – Lowell Observatory-LONEOS MPS 14465
2000 04 04.41296 15 22 09.25 +04 48 22.6   699 – Lowell Observatory-LONEOS MPS 14465
2000 04 04.42884 15 22 08.80 +04 48 25.0   699 – Lowell Observatory-LONEOS MPS 14465
2000 04 04.44462 15 22 08.38 +04 48 28.0   699 – Lowell Observatory-LONEOS MPS 14465
2000 04 05.39476 15 21 44.26 +04 51 09.9 18.0   704 – Lincoln Laboratory ETS, New Mexico MPS 14466
2000 04 05.41272 15 21 43.80 +04 51 13.4 18.1   704 – Lincoln Laboratory ETS, New Mexico MPS 14466
2000 04 05.42974 15 21 43.28 +04 51 15.5 17.8   704 – Lincoln Laboratory ETS, New Mexico MPS 14466
2000 04 13.49607 15 17 25.46 +05 10 50.8 18.8   608 – Haleakala-AMOS MPS 14466
2000 04 13.50645 15 17 25.05 +05 10 51.9 18.8   608 – Haleakala-AMOS MPS 14466
2000 04 13.51682 15 17 24.63 +05 10 53.2 18.6   608 – Haleakala-AMOS MPS 14466
2000 04 14.35277 15 16 53.00 +05 12 29.9 17.6   704 – Lincoln Laboratory ETS, New Mexico MPS 14466
2000 04 14.36607 15 16 52.43 +05 12 30.9 18.7   704 – Lincoln Laboratory ETS, New Mexico MPS 14466
2000 04 14.37928 15 16 51.88 +05 12 33.6 18.5   704 – Lincoln Laboratory ETS, New Mexico MPS 14466
2000 04 14.39250 15 16 51.35 +05 12 34.0 18.7   704 – Lincoln Laboratory ETS, New Mexico MPS 14466
2000 04 14.40571 15 16 50.88 +05 12 35.6 18.8   704 – Lincoln Laboratory ETS, New Mexico MPS 14466
2000 05 04.26989 15 01 02.85 +05 17 26.0 18.8   704 – Lincoln Laboratory ETS, New Mexico MPS 15794
2000 05 04.28200 15 01 02.13 +05 17 23.4 19.2   704 – Lincoln Laboratory ETS, New Mexico MPS 15794
2000 05 04.29409 15 01 01.43 +05 17 21.7 19.0   704 – Lincoln Laboratory ETS, New Mexico MPS 15794
2000 05 04.30618 15 01 00.76 +05 17 21.0 18.6   704 – Lincoln Laboratory ETS, New Mexico MPS 15794
2000 05 04.31827 15 01 00.06 +05 17 19.0 18.6   704 – Lincoln Laboratory ETS, New Mexico MPS 15794
2000 05 24.25759 14 44 04.38 +03 59 43.6 18.2 R 699 – Lowell Observatory-LONEOS MPS 15794
2000 05 24.27104 14 44 03.74 +03 59 39.5   699 – Lowell Observatory-LONEOS MPS 15794
2000 05 24.28445 14 44 03.13 +03 59 34.4   699 – Lowell Observatory-LONEOS MPS 15794
2000 05 24.29790 14 44 02.58 +03 59 29.4   699 – Lowell Observatory-LONEOS MPS 15794
2000 05 28.17741 14 41 17.01 +03 34 33.3 18.9   704 – Lincoln Laboratory ETS, New Mexico MPS 15794
2000 05 28.19173 14 41 16.34 +03 34 27.1 18.4   704 – Lincoln Laboratory ETS, New Mexico MPS 15794
2000 05 28.22153 14 41 15.08 +03 34 14.9 18.1   704 – Lincoln Laboratory ETS, New Mexico MPS 15794
2000 06 05.29491 14 36 26.82 +02 33 18.7 18.5 R 699 – Lowell Observatory-LONEOS MPS 15794
2000 06 05.30744 14 36 26.42 +02 33 12.3   699 – Lowell Observatory-LONEOS MPS 15794
2000 06 05.31997 14 36 26.04 +02 33 06.9   699 – Lowell Observatory-LONEOS MPS 15794
2000 06 05.33255 14 36 25.70 +02 32 59.8   699 – Lowell Observatory-LONEOS MPS 15794
2003 12 17.22705 05 51 50.35 +23 28 55.2 20.8 V 291 – LPL/Spacewatch II MPS 127096
2003 12 17.25183 05 51 48.95 +23 29 00.0 20.8 V 291 – LPL/Spacewatch II MPS 127096
2003 12 17.27684 05 51 47.57 +23 29 04.9 20.2 V 291 – LPL/Spacewatch II MPS 127096
2005 02 08.11981 11 16 01.10 +31 16 57.7 19.8 V 201 – Jonathan B. Postel Observatory MPS 127096
2005 02 08.15008 11 16 00.03 +31 17 14.9 19.7 V 201 – Jonathan B. Postel Observatory MPS 127096
2005 02 08.18030 11 15 58.99 +31 17 31.8 19.8 V 201 – Jonathan B. Postel Observatory MPS 127096
2005 02 28.34537 11 01 13.72 +34 05 15.6 19.3 R 703 – Catalina Sky Survey MPS 127096
2005 02 28.35546 11 01 13.25 +34 05 19.4 18.7 R 703 – Catalina Sky Survey MPS 127096
2005 02 28.36551 11 01 12.66 +34 05 22.3 19.2 R 703 – Catalina Sky Survey MPS 127096
2005 02 28.37536 11 01 12.13 +34 05 26.4 18.2 R 703 – Catalina Sky Survey MPS 127096
2005 03 08.29737 10 54 25.23 +34 48 44.3 18.3 R 703 – Catalina Sky Survey MPS 127773
2005 03 08.30807 10 54 24.68 +34 48 46.3 18.9 R 703 – Catalina Sky Survey MPS 127773
2005 03 08.31670 10 54 24.27 +34 48 49.7 18.5 R 703 – Catalina Sky Survey MPS 127773
2005 03 08.32527 10 54 23.73 +34 48 52.0 18.8 R 703 – Catalina Sky Survey MPS 127773
2005 03 14.36483 10 49 20.27 +35 10 30.9 18.9 R 703 – Catalina Sky Survey MPS 128910
2005 03 14.37388 10 49 19.86 +35 10 33.2 19.2 R 703 – Catalina Sky Survey MPS 128910
2005 03 14.38294 10 49 19.39 +35 10 34.7 19.3 R 703 – Catalina Sky Survey MPS 128910
2005 03 14.39197 10 49 18.91 +35 10 35.8 18.8 R 703 – Catalina Sky Survey MPS 128910
2005 03 31.27853 10 37 41.67 +35 17 09.5 19.5 R 703 – Catalina Sky Survey MPS 130151
2005 03 31.28721 10 37 41.39 +35 17 09.9 19.7 R 703 – Catalina Sky Survey MPS 130151
2005 03 31.29587 10 37 41.05 +35 17 08.8 19.2 R 703 – Catalina Sky Survey MPS 130151
2005 03 31.30462 10 37 40.77 +35 17 07.5 19.0 R 703 – Catalina Sky Survey MPS 130152
2008 11 09.23208 04 00 55.18 +07 11 58.4 20.3 V G96 – Mt. Lemmon Survey MPS 264518
2008 11 09.23994 04 00 54.82 +07 11 58.4 20.1 V G96 – Mt. Lemmon Survey MPS 264518
2008 11 09.24777 04 00 54.46 +07 11 57.7 20.3 V G96 – Mt. Lemmon Survey MPS 264518
2008 11 09.25563 04 00 54.07 +07 11 57.8 20.4 V G96 – Mt. Lemmon Survey MPS 264518
2009 09 17.47201 07 24 23.04 +24 17 10.7 21.1 V 691 – Steward Observatory, Kitt Peak-Spacewatch MPS 294922
2009 09 17.48467 07 24 23.78 +24 17 11.6 21.3 V 691 – Steward Observatory, Kitt Peak-Spacewatch MPS 294922
2009 09 17.49733 07 24 24.53 +24 17 12.4 21.4 V 691 – Steward Observatory, Kitt Peak-Spacewatch MPS 294922
2009 09 28.46666 07 34 41.55 +24 28 40.5 21.4 V 691 – Steward Observatory, Kitt Peak-Spacewatch MPS 296825
2009 09 28.47935 07 34 42.20 +24 28 41.1 21.0 V 691 – Steward Observatory, Kitt Peak-Spacewatch MPS 296825
2009 09 28.49204 07 34 42.86 +24 28 43.0 21.1 V 691 – Steward Observatory, Kitt Peak-Spacewatch MPS 296825
2010 01 16.27599 07 26 56.52 +32 45 27.7 19.7   704 – Lincoln Laboratory ETS, New Mexico MPS 311141
2010 01 16.29069 07 26 55.61 +32 45 33.7 19.7   704 – Lincoln Laboratory ETS, New Mexico MPS 311141
2010 01 16.30318 07 26 54.90 +32 45 36.9 19.5   704 – Lincoln Laboratory ETS, New Mexico MPS 311141
2010 01 16.31563 07 26 54.18 +32 45 40.4 19.6   704 – Lincoln Laboratory ETS, New Mexico MPS 311141
2011 03 01.18316 14 03 53.36 +14 48 57.6 19.5 V J75 – OAM Observatory, La Sagra MPS 373300
2011 03 01.19302 14 03 53.32 +14 49 01.7 18.4 V J75 – OAM Observatory, La Sagra MPS 373300
2011 03 01.20287 14 03 53.34 +14 49 05.1 19.3 V J75 – OAM Observatory, La Sagra MPS 373300
2011 03 08.35862 14 03 02.66 +15 37 33.8 18.7   704 – Lincoln Laboratory ETS, New Mexico MPS 374721
2011 03 08.37051 14 03 02.56 +15 37 38.8 19.2   704 – Lincoln Laboratory ETS, New Mexico MPS 374721
2011 03 08.38243 14 03 02.32 +15 37 44.0 19.3   704 – Lincoln Laboratory ETS, New Mexico MPS 374721
2011 03 08.39446 14 03 02.18 +15 37 48.9 19.3   704 – Lincoln Laboratory ETS, New Mexico MPS 374721
2011 03 08.40678 14 03 02.01 +15 37 53.8 19.5   704 – Lincoln Laboratory ETS, New Mexico MPS 374721
2011 03 15.41623 14 00 54.14 +16 25 20.2 19.0 V G96 – Mt. Lemmon Survey MPS 375311
2011 03 15.42023 14 00 54.07 +16 25 21.7 19.0 V G96 – Mt. Lemmon Survey MPS 375311
2011 03 15.42433 14 00 53.96 +16 25 23.4 19.0 V G96 – Mt. Lemmon Survey MPS 375311
2011 03 15.42841 14 00 53.85 +16 25 25.0 19.0 V G96 – Mt. Lemmon Survey MPS 375311
2011 04 01.97604 13 50 39.08 +18 06 03.3 18.5 V J75 – OAM Observatory, La Sagra MPS 378495
2011 04 01.98466 13 50 38.64 +18 06 05.2 18.7 V J75 – OAM Observatory, La Sagra MPS 378495
2011 04 01.99326 13 50 38.26 +18 06 06.8 18.5 V J75 – OAM Observatory, La Sagra MPS 378495
2011 04 05.35545 13 48 02.77 +18 19 43.9 18.7 V 703 – Catalina Sky Survey MPS 378495
2011 04 05.36169 13 48 02.44 +18 19 45.8 18.9 V 703 – Catalina Sky Survey MPS 378495
2011 04 05.36796 13 48 02.16 +18 19 47.0 18.6 V 703 – Catalina Sky Survey MPS 378495
2011 04 05.37426 13 48 01.87 +18 19 48.2 18.7 V 703 – Catalina Sky Survey MPS 378495
2011 04 13.33700 13 41 27.85 +18 41 25.5 18.7 V 703 – Catalina Sky Survey MPS 379592
2011 04 13.34577 13 41 27.42 +18 41 26.2 19.0 V 703 – Catalina Sky Survey MPS 379592
2011 04 13.35458 13 41 26.84 +18 41 26.9 19.0 V 703 – Catalina Sky Survey MPS 379592
2011 04 13.36469 13 41 26.34 +18 41 27.8 19.0 V 703 – Catalina Sky Survey MPS 379592
